Regional Weather Roundup
Issued by NWS

Home | Current Version | Previous Version | Graphics & Text | Print | Product List | Glossary On
Versions: 1 2 3 4 5 6 7 8 9 10 11 12 13 14 15 16 17 18 19 20 21 22 23 24 25 26 27 28 29 30 31 32 33 34 35 36 37 38 39 40 41 42 43 44 45 46 47 48 49 50
000
ASUS45 KABQ 020601
RWRNM
NEW MEXICO REGIONAL WEATHER ROUNDUP
NATIONAL WEATHER SERVICE ALBUQUERQUE NM
1200 AM MDT WED SEP 02 2015

NOTE: "FAIR" MEANS FEW OR NO CLOUDS BELOW 12,000 FEET AGL WITH NO
       SIGNIFICANT WEATHER OR OBSTRUCTIONS TO VISION.

      THIS PRODUCT IS RELEASED AS TWO VERSIONS.  ONE VERSION NEAR
      THE TOP OF THE HOUR CONTAINING PRELIMINARY DATA FROM ALBUQUERQUE
      AND OTHER STATIONS.  A FINAL VERSION WITH ADDITIONAL DATA IS
      ISSUED ABOUT 10 MINUTES AFTER THE HOUR.

NMZ501-503-504-510>518-020700-
NORTHWEST PLATEAU/NORTHCENTRAL MOUNTAINS

CITY           SKY/WX    TMP DP  RH WIND       PRES   REMARKS
FARMINGTON     CLEAR     67  47  48 CALM      30.16R
6HR MIN TEMP:  67; 6HR MAX TEMP:  84;

SANTA FE       PTCLDY    68  42  38 CALM      30.24F
6HR MIN TEMP:  66; 6HR MAX TEMP:  84;

TAOS           CLOUDY    64  39  39 NE6       30.31S

$$
NMZ402-403-502-505>509-020700-
WESTCENTRAL MOUNTAINS/SOUTHWEST MOUNTAINS

CITY           SKY/WX    TMP DP  RH WIND       PRES   REMARKS
GALLUP         CLOUDY    59  48  67 E3        30.27S
6HR MIN TEMP:  59; 6HR MAX TEMP:  77;

SILVER CITY      N/A     66  50  55 N9        30.22F

$$
NMZ407-409-411-412-020700-
SOUTHERN DESERTS

CITY           SKY/WX    TMP DP  RH WIND       PRES   REMARKS
DEMING         MOCLDY    76  52  43 SW8       30.12S
6HR MIN TEMP:  75; 6HR MAX TEMP:  92;

HOLLOMAN AFB   MOCLDY    73  46  38 NE3       30.06S
ALAMOGORDO     MOCLDY    72  41  33 SE6       30.09R
T OR C         PTCLDY    73  47  39 W8        30.15R
6HR MIN TEMP:  71; 6HR MAX TEMP:  87;


$$
NMZ519>523-020700-
CENTRAL VALLEYS/CENTRAL HIGHLANDS

CITY           SKY/WX    TMP DP  RH WIND       PRES   REMARKS
ALBUQUERQUE    MOCLDY    72  42  34 SE5       30.18S
6HR MIN TEMP:  72; 6HR MAX TEMP:  85;

DOUBLE EAGLE   PTCLDY    65  47  53 W7        30.21F
MORIARTY ARPT  FAIR      66  45  46 SE5       30.26S
6HR MIN TEMP:  65; 6HR MAX TEMP:  77;

CLINES CORNERS CLOUDY    64  44  48 SE6       30.31R
6HR MIN TEMP:  64; 6HR MAX TEMP:  78;

BELEN          FAIR      69  50  50 SW5       30.18S
6HR MIN TEMP:  68; 6HR MAX TEMP:  82;

SOCORRO        NOT AVBL

$$
NMZ524>526-539-540-020700-
SOUTHCENTRAL MOUNTAINS

CITY           SKY/WX    TMP DP  RH WIND       PRES   REMARKS
RUIDOSO        NOT AVBL

$$
NMZ527>531-020700-
NORTHEAST HIGHLANDS/NORTHEAST PLAINS

CITY           SKY/WX    TMP DP  RH WIND       PRES   REMARKS
LAS VEGAS      MOCLDY    60  49  66 S12       30.29R
6HR MIN TEMP:  58; 6HR MAX TEMP:  75; 6HR PCP:  0.01;

RATON          MOCLDY    62  48  60 NE3       30.23S
6HR MIN TEMP:  59; 6HR MAX TEMP:  77;

CLAYTON        PTCLDY    68  55  63 SW13      30.14F
6HR MIN TEMP:  67; 6HR MAX TEMP:  76; 6HR PCP: TRACE;


$$
NMZ532>537-020700-
EASTCENTRAL PLAINS

CITY           SKY/WX    TMP DP  RH WIND       PRES   REMARKS
TUCUMCARI      CLOUDY    77  52  41 S5        30.08S
6HR MIN TEMP:  75; 6HR MAX TEMP:  90;

CANNON AFB     PTCLDY    74  51  44 S5        30.16R
6HR MIN TEMP:  73; 6HR MAX TEMP:  90;

CLOVIS AIRPORT PTCLDY    70  52  52 SW7       30.17R

$$
NMZ028-029-538-020700-
SOUTHEAST PLAINS

CITY           SKY/WX    TMP DP  RH WIND       PRES   REMARKS
ROSWELL        PTCLDY    78  50  37 S8        30.09R
6HR MIN TEMP:  78; 6HR MAX TEMP:  95;

ARTESIA        PTCLDY    77  50  38 S12       30.09S
CARLSBAD       PTCLDY    77  50  38 S8        30.07
6HR MIN TEMP:  77; 6HR MAX TEMP:  96;

HOBBS            N/A     68  50  52 CALM      30.12R


$$



USA.gov is the U.S. government's official web portal to all federal, state and local government web resources and services.